• In Österreich
  • Länderverzeichnis
  • Für 7 Tage
  • Wassertemperatur
  • Satellitenkarten
  • Wetterkarte
  • News
  • Widgets
  • user-avatar
    Anmelden

    Stündliche Wetter Rawson

    Heute, 25 September, Dienstag

    Zeit Temperatur Niederschläge Wind Luftdruck Luftfeuchtigkeit
    00:00 +7°C° 0 mm 9 m/S 760 mmHg 68%
    01:00 +7°C° 0 mm 9 m/S 759 mmHg 67%
    02:00 +7°C° 0 mm 10 m/S 758 mmHg 69%
    03:00 +8°C° 0 mm 9 m/S 758 mmHg 64%
    04:00 +9°C° 0 mm 8 m/S 757 mmHg 59%
    05:00 +9°C° 0 mm 8 m/S 757 mmHg 53%
    06:00 +10°C° 0 mm 8 m/S 757 mmHg 49%
    07:00 +11°C° 0 mm 9 m/S 757 mmHg 45%
    08:00 +11°C° 0 mm 9 m/S 757 mmHg 41%
    09:00 +12°C° 0 mm 9 m/S 757 mmHg 36%
    10:00 +13°C° 0 mm 9 m/S 757 mmHg 31%
    11:00 +15°C° 0 mm 9 m/S 757 mmHg 26%
    12:00 +16°C° 0 mm 9 m/S 757 mmHg 24%
    13:00 +16°C° 0 mm 9 m/S 757 mmHg 23%
    14:00 +16°C° 0 mm 9 m/S 756 mmHg 22%
    15:00 +16°C° 0 mm 9 m/S 757 mmHg 23%
    16:00 +16°C° 0 mm 9 m/S 757 mmHg 24%
    17:00 +15°C° 0 mm 9 m/S 757 mmHg 25%
    18:00 +15°C° 0 mm 8 m/S 758 mmHg 29%
    19:00 +14°C° 0 mm 7 m/S 758 mmHg 32%
    20:00 +13°C° 0 mm 6 m/S 759 mmHg 35%
    21:00 +10°C° 0 mm 7 m/S 760 mmHg 47%
    22:00 +9°C° 0 mm 8 m/S 761 mmHg 58%
    23:00 +7°C° 0 mm 9 m/S 762 mmHg 70%

    Morgen, 26 September, Mittwoch

    Zeit Temperatur Niederschläge Wind Luftdruck Luftfeuchtigkeit
    00:00 +6°C° 0 mm 8 m/S 762 mmHg 71%
    01:00 +6°C° 0 mm 7 m/S 763 mmHg 73%
    02:00 +5°C° 0 mm 6 m/S 764 mmHg 75%
    03:00 +5°C° 0 mm 6 m/S 764 mmHg 75%
    04:00 +5°C° 0 mm 6 m/S 765 mmHg 76%
    05:00 +4°C° 0 mm 6 m/S 765 mmHg 76%
    06:00 +6°C° 0 mm 5 m/S 766 mmHg 73%
    07:00 +6°C° 0 mm 5 m/S 767 mmHg 69%
    08:00 +6°C° 0 mm 5 m/S 767 mmHg 65%
    09:00 +7°C° 0 mm 4 m/S 767 mmHg 61%
    10:00 +7°C° 0 mm 4 m/S 768 mmHg 58%
    11:00 +9°C° 0 mm 3 m/S 768 mmHg 55%
    12:00 +9°C° 0 mm 3 m/S 768 mmHg 54%
    13:00 +9°C° 0 mm 3 m/S 768 mmHg 52%
    14:00 +9°C° 0 mm 3 m/S 768 mmHg 51%
    15:00 +8°C° 0 mm 4 m/S 767 mmHg 51%
    16:00 +8°C° 0 mm 4 m/S 767 mmHg 51%
    17:00 +8°C° 0 mm 5 m/S 767 mmHg 51%
    18:00 +8°C° 0 mm 5 m/S 767 mmHg 54%
    19:00 +7°C° 0 mm 5 m/S 767 mmHg 57%
    20:00 +6°C° 0 mm 5 m/S 768 mmHg 59%
    21:00 +6°C° 0 mm 5 m/S 768 mmHg 61%
    22:00 +5°C° 0 mm 6 m/S 767 mmHg 62%
    23:00 +5°C° 0 mm 6 m/S 767 mmHg 63%

    übermorgen, 27 September, Donnerstag

    Zeit Temperatur Niederschläge Wind Luftdruck Luftfeuchtigkeit
    00:00 +5°C° 0 mm 6 m/S 767 mmHg 64%
    01:00 +5°C° 0 mm 6 m/S 767 mmHg 65%
    02:00 +5°C° 0 mm 6 m/S 767 mmHg 66%
    03:00 +5°C° 0 mm 6 m/S 766 mmHg 68%
    04:00 +5°C° 0 mm 7 m/S 766 mmHg 69%
    05:00 +5°C° 0 mm 7 m/S 765 mmHg 71%
    06:00 +5°C° 0 mm 8 m/S 765 mmHg 71%
    07:00 +6°C° 0 mm 8 m/S 765 mmHg 72%
    08:00 +6°C° 0 mm 9 m/S 765 mmHg 72%
    09:00 +6°C° 0.2 mm 9 m/S 765 mmHg 70%
    10:00 +7°C° 0.2 mm 9 m/S 764 mmHg 68%
    11:00 +7°C° 0.2 mm 9 m/S 764 mmHg 66%
    12:00 +7°C° 0.4 mm 10 m/S 763 mmHg 67%
    13:00 +7°C° 0.4 mm 10 m/S 763 mmHg 68%
    14:00 +8°C° 0.4 mm 11 m/S 762 mmHg 69%
    15:00 +8°C° 0.2 mm 11 m/S 761 mmHg 71%
    16:00 +8°C° 0.2 mm 11 m/S 761 mmHg 72%
    17:00 +8°C° 0.2 mm 11 m/S 760 mmHg 74%
    18:00 +7°C° 0.1 mm 11 m/S 759 mmHg 75%
    19:00 +7°C° 0.1 mm 11 m/S 759 mmHg 77%
    20:00 +7°C° 0.1 mm 11 m/S 759 mmHg 78%
    21:00 +7°C° 0 mm 11 m/S 758 mmHg 79%
    22:00 +7°C° 0 mm 11 m/S 758 mmHg 80%
    23:00 +7°C° 0 mm 12 m/S 757 mmHg 81%

    28 September, Freitag

    Zeit Temperatur Niederschläge Wind Luftdruck Luftfeuchtigkeit
    00:00 +7°C° 0 mm 11 m/S 756 mmHg 82%
    01:00 +7°C° 0 mm 11 m/S 756 mmHg 83%
    02:00 +7°C° 0 mm 11 m/S 755 mmHg 84%
    03:00 +7°C° 0.7 mm 11 m/S 754 mmHg 86%
    04:00 +7°C° 0.7 mm 11 m/S 753 mmHg 87%
    05:00 +7°C° 0.7 mm 10 m/S 753 mmHg 89%
    06:00 +8°C° 0.9 mm 10 m/S 752 mmHg 86%
    07:00 +8°C° 0.9 mm 10 m/S 752 mmHg 83%
    08:00 +9°C° 0.9 mm 10 m/S 752 mmHg 80%
    09:00 +12°C° 0 mm 9 m/S 751 mmHg 66%
    10:00 +16°C° 0 mm 8 m/S 750 mmHg 52%
    11:00 +20°C° 0 mm 7 m/S 749 mmHg 38%
    12:00 +20°C° 0 mm 7 m/S 749 mmHg 36%
    13:00 +21°C° 0 mm 7 m/S 748 mmHg 33%
    14:00 +22°C° 0 mm 7 m/S 747 mmHg 31%
    15:00 +22°C° 0 mm 6 m/S 747 mmHg 30%
    16:00 +22°C° 0 mm 6 m/S 747 mmHg 29%
    17:00 +22°C° 0 mm 6 m/S 747 mmHg 28%
    18:00 +21°C° 0 mm 5 m/S 747 mmHg 31%
    19:00 +20°C° 0 mm 4 m/S 747 mmHg 35%
    20:00 +18°C° 0 mm 3 m/S 748 mmHg 38%
    21:00 +18°C° 0 mm 4 m/S 748 mmHg 40%
    22:00 +17°C° 0 mm 4 m/S 748 mmHg 42%
    23:00 +16°C° 0 mm 5 m/S 748 mmHg 43%

    29 September, Samstag

    Zeit Temperatur Niederschläge Wind Luftdruck Luftfeuchtigkeit
    00:00 +15°C° 0 mm 5 m/S 748 mmHg 45%
    01:00 +15°C° 0 mm 5 m/S 747 mmHg 47%
    02:00 +14°C° 0 mm 5 m/S 747 mmHg 49%
    03:00 +14°C° 0 mm 4 m/S 747 mmHg 50%
    04:00 +13°C° 0 mm 3 m/S 747 mmHg 51%
    05:00 +13°C° 0 mm 3 m/S 747 mmHg 52%
    06:00 +13°C° 0.2 mm 3 m/S 746 mmHg 58%
    07:00 +13°C° 0.2 mm 4 m/S 746 mmHg 64%
    08:00 +12°C° 0.2 mm 4 m/S 746 mmHg 69%
    09:00 +12°C° 1.4 mm 4 m/S 745 mmHg 75%
    10:00 +11°C° 1.4 mm 3 m/S 745 mmHg 80%
    11:00 +11°C° 1.4 mm 3 m/S 744 mmHg 86%
    12:00 +12°C° 0.6 mm 2 m/S 743 mmHg 84%
    13:00 +12°C° 0.6 mm 2 m/S 743 mmHg 83%
    14:00 +12°C° 0.6 mm 1 m/S 742 mmHg 82%
    15:00 +12°C° 0 mm 3 m/S 742 mmHg 79%
    16:00 +12°C° 0 mm 4 m/S 742 mmHg 76%
    17:00 +13°C° 0 mm 5 m/S 742 mmHg 73%
    18:00 +10°C° 0.1 mm 6 m/S 743 mmHg 73%
    19:00 +9°C° 0.1 mm 8 m/S 744 mmHg 74%
    20:00 +6°C° 0.1 mm 9 m/S 745 mmHg 75%
    21:00 +6°C° 0 mm 8 m/S 746 mmHg 74%
    22:00 +6°C° 0 mm 8 m/S 746 mmHg 72%
    23:00 +6°C° 0 mm 7 m/S 747 mmHg 71%

    30 September, Sonntag

    Zeit Temperatur Niederschläge Wind Luftdruck Luftfeuchtigkeit
    00:00 +6°C° 0 mm 7 m/S 748 mmHg 71%
    01:00 +6°C° 0 mm 7 m/S 748 mmHg 71%
    02:00 +5°C° 0 mm 7 m/S 749 mmHg 71%
    03:00 +5°C° 0 mm 7 m/S 750 mmHg 70%
    04:00 +5°C° 0 mm 6 m/S 750 mmHg 70%
    05:00 +5°C° 0 mm 6 m/S 751 mmHg 69%
    06:00 +5°C° 0 mm 7 m/S 752 mmHg 61%
    07:00 +5°C° 0 mm 8 m/S 753 mmHg 52%
    08:00 +5°C° 0 mm 9 m/S 754 mmHg 44%
    09:00 +6°C° 0 mm 9 m/S 754 mmHg 38%
    10:00 +7°C° 0 mm 9 m/S 754 mmHg 33%
    11:00 +8°C° 0 mm 10 m/S 755 mmHg 27%
    12:00 +8°C° 0 mm 9 m/S 755 mmHg 24%
    13:00 +10°C° 0 mm 9 m/S 755 mmHg 21%
    14:00 +11°C° 0 mm 9 m/S 756 mmHg 19%
    15:00 +10°C° 0 mm 8 m/S 756 mmHg 19%
    16:00 +10°C° 0 mm 8 m/S 756 mmHg 20%
    17:00 +10°C° 0 mm 8 m/S 757 mmHg 20%
    18:00 +9°C° 0 mm 7 m/S 757 mmHg 24%
    19:00 +8°C° 0 mm 6 m/S 758 mmHg 27%
    20:00 +8°C° 0 mm 5 m/S 759 mmHg 30%
    21:00 +7°C° 0 mm 5 m/S 759 mmHg 33%
    22:00 +5°C° 0 mm 6 m/S 760 mmHg 35%
    23:00 +5°C° 0 mm 6 m/S 760 mmHg 37%
    Mehr zeigen